Flag for U.S.A. Weather past 2 weeks in New Orleans, Louisiana, U.S.A.

Now
52 °F

Low clouds.


Feels Like: 46 °F
Forecast: 50 / 62 °F
Wind: 20 mph from Northeast

Location: Lakefront Airport

Current Time: Dec 20, 2014 at 7:17:33 AM

Latest Report: Dec 20, 2014 at 6:53 AM


Visibility: 10 mi

Pressure: 30.10 "Hg

Humidity: 86%

Dew point: 48 °F

Location of New OrleansLocation

Historic Weather in New Orleans — Graph

°F

New Orleans temperature yesterday

Maximum temperature yesterday: 60 °F (at 12:53 AM)
Minimum temperature yesterday: 52 °F (at 8:53 PM)
Average temperature yesterday: 55 °F

Past Weeks' High & Low Weather Summary

 TemperatureHumidityPressure
High81 °F (Dec 5, 11:53 AM)94% (Dec 6, 4:53 AM)30.37 "Hg (Dec 6, 4:53 AM)
Low47 °F (Dec 10, 6:53 AM)43% (Dec 16, 10:53 AM)29.96 "Hg (Dec 15, 2:53 PM)
Average59 °F70%30.18 "Hg
* Reported Dec 5 5:53 AM — Dec 20 5:53 AM, New Orleans, Weather by CustomWeather, © 2014

Note: Actual official high and low records may vary slightly from our data, if they occured in-between our weather recording intervals... More about our weather records

Advertising

New Orleans weather history for previous 24 hours

 ConditionsComfort  
Time TempWeatherWind HumidityBarometerVisibility
5:53 AM
Dec 20
51 °FLow clouds.20 mph86%30.09 "Hg10 mi
4:53 AM51 °FLow clouds.21 mph86%30.08 "Hg10 mi
3:53 AM53 °FLow clouds.17 mph86%30.06 "Hg10 mi
2:53 AM53 °FLow clouds.17 mph89%30.04 "Hg10 mi
2:02 AM53 °FLight rain. Fog.17 mph89%30.06 "Hg2 mi
1:53 AM53 °FFog.18 mph89%30.04 "Hg3 mi
12:56 AM52 °FLight rain. Overcast.16 mph89%30.07 "Hg7 mi
11:53 PM
Dec 19
52 °FLight rain. Fog.18 mph89%30.06 "Hg2 mi
10:53 PM52 °FHeavy rain. Fog.20 mph86%30.07 "Hg2 mi
9:53 PM52 °FLight rain. Fog.16 mph86%30.07 "Hg2 mi
8:53 PM52 °FLight rain. Fog.16 mph86%30.08 "Hg6 mi
7:53 PM53 °FLight rain. Low clouds.17 mph83%30.09 "Hg10 mi
6:53 PM53 °FLow clouds.16 mph86%30.06 "Hg10 mi
5:53 PM53 °FLow clouds.20 mph86%30.05 "Hg10 mi
4:53 PM53 °FLow clouds.21 mph89%30.04 "Hg10 mi
3:53 PM53 °FRain. Fog.20 mph89%30.04 "Hg2 mi
2:53 PM54 °FLight rain. Fog.15 mph86%30.05 "Hg5 mi
1:53 PM55 °FRain. Fog.14 mph87%30.04 "Hg2 mi
1:00 PM55 °FRain. Fog.6 mph87%30.09 "Hg2 mi
11:53 AM55 °FHeavy rain. Fog.13 mph87%30.08 "Hg2 mi
10:53 AM55 °FCloudy.12 mph87%30.10 "Hg10 mi
9:53 AM56 °FLow clouds.18 mph87%30.13 "Hg10 mi
8:53 AM58 °FMostly cloudy.16 mph84%30.14 "Hg10 mi
7:53 AM57 °FLight rain. Mostly cloudy.14 mph83%30.14 "Hg7 mi
7:00 AM58 °FOvercast.12 mph78%30.13 "Hg10 mi
Weather by CustomWeather, © 2014

See weather overviewHow to use our weather pages